Home > Weather > Graz > Past weeks

Flag for Austria Weather for the Past 2 Weeks in Graz, Styria, Austria

Now
52 °F

Passing clouds.


Feels Like: 52 °F
Forecast: 45 / 66 °F
Wind: 2 mph from North

Location: Graz-Thalerhof-Flughafen

Current Time: May 4, 2016 at 7:00:17 AM

Latest Report: May 4, 2016 at 5:50 AM


Visibility: N/A

Pressure: 30.01 "Hg

Humidity: 62%

Dew Point: 39 °F

Location of GrazLocation

Historic Weather in Graz — Graph

°F

Graz Temperature Yesterday

Maximum temperature yesterday: 66 °F (at 2:20 PM)
Minimum temperature yesterday: 43 °F (at 2:50 AM)
Average temperature yesterday: 56 °F

High & Low Weather Summary for the Past Weeks

 TemperatureHumidityPressure
High70 °F (Apr 22, 1:50 PM)100% (Apr 19, 5:50 AM)30.36 "Hg (Apr 19, 5:50 AM)
Low27 °F (Apr 26, 4:50 AM)24% (Apr 25, 5:20 PM)29.56 "Hg (Apr 23, 4:50 PM)
Average49 °F68%29.96 "Hg
* Reported Apr 19 5:20 AM — May 4 5:20 AM, Graz, Weather by CustomWeather, © 2016

Note: Actual official high and low records may vary slightly from our data, if they occured in-between our weather recording intervals... More about our weather records

Advertising

Graz Weather History for the Previous 24 Hours

Scroll right to see more
 ConditionsComfort  
Time TempWeatherWind HumidityBarometerVisibility
5:20 AM
Wed, May 4
54 °FOvercast.6 mph58%30.01 "HgN/A
4:50 AM52 °FPassing clouds.1 mph67%29.98 "HgN/A
4:20 AM52 °FPassing clouds.2 mph67%29.98 "HgN/A
3:50 AM52 °FOvercast.1 mph72%29.98 "HgN/A
3:20 AM54 °FPassing clouds.6 mph58%29.98 "HgN/A
2:50 AM54 °FPassing clouds.5 mph58%29.98 "HgN/A
2:20 AM54 °FPartly cloudy.5 mph58%29.98 "HgN/A
1:50 AM52 °FOvercast.5 mph67%29.98 "HgN/A
1:20 AM54 °FPassing clouds.5 mph58%29.95 "HgN/A
12:50 AM52 °FOvercast.5 mph67%29.98 "HgN/A
11:50 PM
Tue, May 3
55 °FOvercast.7 mph55%29.95 "HgN/A
11:20 PM54 °FPassing clouds.5 mph58%29.95 "HgN/A
10:50 PM55 °FPassing clouds.5 mph55%29.95 "HgN/A
10:20 PM55 °FPassing clouds.7 mph55%29.95 "HgN/A
9:50 PM57 °FPassing clouds.8 mph48%29.95 "HgN/A
9:20 PM57 °FPassing clouds.6 mph48%29.95 "HgN/A
8:50 PM59 °FBroken clouds.9 mph45%29.92 "HgN/A
8:20 PM57 °FPartly sunny.10 mph51%29.92 "HgN/A
7:50 PM59 °FBroken clouds.12 mph48%29.92 "HgN/A
7:20 PM61 °FBroken clouds.20 mph42%29.89 "HgN/A
6:50 PM63 °FBroken clouds.13 mph39%29.89 "HgN/A
6:20 PM66 °FScattered clouds.13 mph32%29.86 "HgN/A
5:50 PM66 °FPassing clouds.13 mph30%29.86 "HgN/A
5:20 PM66 °FPassing clouds.10 mph32%29.86 "HgN/A
4:50 PM66 °FPassing clouds.10 mph30%29.86 "HgN/A
4:20 PM66 °FScattered clouds.12 mph30%29.86 "HgN/A
3:50 PM64 °FScattered clouds.15 mph37%29.89 "HgN/A
3:20 PM64 °FScattered clouds.10 mph37%29.89 "HgN/A
2:50 PM64 °FScattered clouds.13 mph32%29.89 "HgN/A
2:20 PM66 °FScattered clouds.9 mph35%29.89 "HgN/A
1:20 PM64 °FPartly sunny.12 mph37%29.92 "HgN/A
12:50 PM63 °FPartly sunny.13 mph45%29.92 "HgN/A
12:20 PM63 °FPartly sunny.8 mph45%29.92 "HgN/A
11:50 AM63 °FBroken clouds.8 mph45%29.95 "HgN/A
11:20 AM64 °FScattered clouds.13 mph43%29.95 "HgN/A
10:50 AM61 °FScattered clouds.7 mph52%29.95 "HgN/A
10:20 AM59 °FPartly sunny.5 mph59%29.95 "HgN/A
9:50 AM59 °FPartly sunny.6 mph63%29.95 "HgN/A
9:20 AM57 °FPartly sunny.5 mph72%29.95 "HgN/A
8:50 AM54 °FPartly sunny.5 mph82%29.95 "HgN/A
8:20 AM50 °FPartly sunny.2 mph94%29.98 "HgN/A
7:50 AM48 °FPartly sunny.2 mph94%29.95 "HgN/A
7:20 AM46 °FPartly sunny.2 mph100%29.95 "HgN/A
Weather by CustomWeather, © 2016

See weather overviewHow to use our weather pages